Location: Killam
(52.7910°N, 111.8608°W)
Time: 16:09:22
(UTC+00:00)

Vanguard 2 Rocket - Pass Details

Date: 25 February 2026
Orbit: 553 x 3286 km, 32.9° (Epoch: 11 March)

Event Time Altitude Azimuth Distance (km) Brightness Sun altitude
Rises 20:55:45 0° 257° (WSW) 7,255 11.9 26.3°
Reaches altitude 10° 21:01:21 10° 250° (WSW) 6,214 11.9 26.0°
Maximum altitude 21:17:22 35° 196° (SSW) 3,930 12.2 25.0°
Drops below altitude 10° 21:29:17 10° 138° (SE) 4,631 10.8 24.1°
Sets 21:32:45 0° 129° (SE) 5,275 10.9 23.9°
